User: anonymous   Login
Location: Poigny-la-Forêt
(48.6876°N, 1.7701°E)
Time: 09:22:56
(UTC+01:00)
Language:

Envisat - Orbit

View from above orbital plane
View from above orbital plane
View from above satellite
View from above satellite

Ground track
Ground track

The orbit data is extracted from the following two-line orbital elements,

1 27386U 02009A   19322.62987545  .00000005  00000-0  14998-4 0  9990
2 27386  98.1428 335.7814 0001317  95.3204  50.0792 14.37963181928179
Epoch (UTC): 18 November 2019 15:07:01
Eccentricity: 0.0001317
inclination: 98.1428°
perigee height: 764 km
apogee height: 766 km
right ascension of ascending node: 335.7814°
argument of perigee: 95.3204°
revolutions per day: 14.37963181
mean anomaly at epoch: 50.0792°
orbit number at epoch: 92817

The dashed part of the orbit path shows where the satellite is in the earth's shadow,  

DLR